Regional Weather Roundup
Issued by NWS

Current Version | Previous Version | Text Only | Print | Product List | Glossary On
Versions: 1 2 3 4 5 6 7 8 9 10 11 12 13 14 15 16 17 18 19 20 21 22 23 24 25 26 27 28 29 30 31 32 33 34 35 36 37 38 39 40 41 42 43 44 45 46 47 48 49 50
000
ASUS44 KFWD 180115
RWRTX
NORTH TEXAS HOURLY WEATHER ROUNDUP
NATIONAL WEATHER SERVICE FORT WORTH TX
800 PM CDT THU AUG 17 2017

NOTE: "FAIR" INDICATES FEW OR NO CLOUDS BELOW 12,000 FEET WITH NO
SIGNIFICANT WEATHER AND/OR OBSTRUCTIONS TO VISIBILITY.

TXZ118-119-180200-
DALLAS/FORT WORTH METROPLEX

CITY           SKY/WX    TMP DP  RH WIND       PRES   REMARKS
DFW AIRPORT    CLOUDY    83  67  58 CALM      29.95R
DALLAS LOVE    CLOUDY    85  69  58 SW6       29.96R
FTW MEACHAM    CLOUDY    78  68  71 SW10      29.97R
DAL-EXECUTIVE  CLOUDY    80  72  76 CALM      29.97R
FTW-ALLIANCE   CLOUDY    77  70  79 S5        29.97R
FTW-NAS-JRB    CLOUDY    78  68  71 SW15G22   29.98
FTW-SPINKS     DRIZZLE   75  70  84 SW15G22   30.00R
ARLINGTON      CLOUDY    76  71  85 S7        29.99R
GRAND PRAIRIE  CLEAR     79  64  61 SE5       29.98S
ADDISON        CLEAR     86  70  58 SW7       29.97R HX  90
MESQUITE       CLEAR     82  79  89 E3        29.96R HX  93
LANCASTER      CLOUDY    83  71  67 W6        29.98R
$$

TXZ091>094-102>105-117-120-121-131>134-180200-
NORTH CENTRAL TEXAS

CITY           SKY/WX    TMP DP  RH WIND       PRES   REMARKS
SHRMAN/DENISON CLOUDY    85  77  77 E3        29.98R HX  94
GAINESVILLE    CLOUDY    85  76  74 E5        29.98S HX  94
BOWIE          MOCLDY    84  72  66 S7        29.98R HX  90
BRIDGEPORT     CLOUDY    79  67  67 SW3       29.99S
DECATUR        CLOUDY    81  68  64 SW7       29.98F
DENTON         CLOUDY    81  68  64 S8        29.96S
MCKINNEY       CLOUDY    83  80  91 SE5       29.96S HX  95
BONHAM         MOCLDY    82  77  83 E5        29.98R HX  91
GREENVILLE     CLOUDY    84  79  84 E3        29.98R HX  96
ROCKWALL       CLOUDY    82  79  89 SE3       29.97S HX  93
TERRELL        PTCLDY    84  77  79 SE5       29.97R HX  94
WAXAHACHIE     CLOUDY    78  69  75 W13G18    29.99R
CLEBURNE       DRIZZLE   73  73 100 SW12G17   30.00F
GRANBURY       CLOUDY    75  70  84 S12       29.99F
$$

TXZ083>090-098>101-113>116-127>130-139>142-154-155-180200-
WESTERN NORTH TEXAS

CITY           SKY/WX    TMP DP  RH WIND       PRES   REMARKS
WICHITA FALLS  PTCLDY    86  73  65 E5        29.95S HX  93
WF-KICKAPOO    CLEAR     88  75  65 E3        29.98S HX  98
VERNON         PTCLDY    87  67  50 E8        29.98R
ABILENE        CLOUDY    76  69  79 S12       30.02S
ABILENE-DYESS  CLEAR     77  70  79 SE10      30.01S
GRAHAM         CLOUDY    81  67  62 S8        29.98F
BRECKENRIDGE   MOCLDY    80  67  64 SE7       30.00S
CISCO          CLOUDY    75  72  88 SE8       30.04R
EASTLAND       CLOUDY    76  69  78 SE8       30.02F
RANGER         CLOUDY    73  69  87 CALM      30.02F
MINERAL WELLS  CLOUDY    77  67  71 S5        29.98S
STEPHENVILLE   CLOUDY    73  68  86 SE5       30.05F
COMANCHE       CLOUDY    72  72 100 SE8       30.04F
BROWNWOOD      CLOUDY    73  73 100 N6        30.03R
COLEMAN        CLOUDY    75  69  80 N5        30.01F
$$

TXZ143>147-156>162-174-175-180200-
CENTRAL TEXAS

CITY           SKY/WX    TMP DP  RH WIND       PRES   REMARKS
WACO           CLOUDY    77  70  79 NW23G32   30.00F
WACO-MCGREGOR  CLOUDY    76  71  85 N16G22    30.03R
HILLSBORO      CLOUDY    78  71  79 SW10G18   30.01R
MEXIA          MOCLDY    85  75  71 W6        29.97R HX  94
HEARNE         CLEAR     91  71  52 SE3       29.96R HX  97
CAMERON        CLEAR     92  71  50 CALM      29.95R HX  98
TEMPLE         MOCLDY    82  71  69 N14G23    30.00R
KILLEEN        MOCLDY    78  71  78 N15       30.00R
KILLEEN-SKYLRK PTCLDY    79  72  79 N8        30.00R
FORT HOOD      CLOUDY   N/A N/A N/A N10       29.97F
HAMILTON       CLOUDY    73  71  93 E9        30.05S
LAMPASAS       CLOUDY    78  73  83 NE16      30.02S
$$

TXZ095>097-106>112-122>126-135>138-148>153-164>167-180200-
EAST TEXAS

CITY           SKY/WX    TMP DP  RH WIND       PRES   REMARKS
PARIS          PTCLDY    82  77  84 S3        29.99R HX  90
SULPHUR SPRNGS PTCLDY    82  77  83 S6        30.00S HX  91
MOUNT PLEASANT PTCLDY    80  77  90 CALM      30.00S
GILMER         PTCLDY    79  76  91 CALM      29.99R
MINEOLA        CLEAR     79  77  94 E8        29.99R
TYLER          CLEAR     84  79  85 SE3       29.98R HX  96
LONGVIEW       CLEAR     82  80  94 NE3       29.97R HX  94
MARSHALL         N/A     78  74  87 CALM      30.00S
ATHENS         PTCLDY    81  77  89 CALM      29.96R
PALESTINE      PTCLDY    86  77  75 E3        29.98R HX  98
JACKSONVILLE   PTCLDY    82  77  86 CALM      30.01R
HENDERSON      CLEAR     82  75  78 CALM      29.99R
CENTER         CLEAR     86  80  82 E3        30.00R HX 101
NACOGDOCHES    CLEAR     82  79  90 E3        29.98R HX  92
LUFKIN         CLEAR     85  76  74 E3        29.97R HX  94
$$

SUPPLEMENTAL OBSERVATIONS (NWS FORT WORTH AREA)

CITY           SKY/WX    TMP DP  RH WIND       PRES   REMARKS
DENISON DAM      N/A     84  75  74 E2          N/A  HX  92
CADDO GRASSLND   N/A     82  77  83 E2          N/A  HX  91
PAT MAYSE LAKE   N/A     81  75  83 NE1         N/A
GREENVILLE       N/A     82  77  83 SE2         N/A  HX  91
CEDAR HILL       N/A     75  70  83 SW5         N/A
LBJ GRASSLAND    N/A     81  70  69 S2          N/A
POSSUM KINGDOM   N/A     79  66  65 SE7G17      N/A
GRANBURY         N/A     75  70  83 S13         N/A
COMANCHE         N/A     72  68  88 SE9         N/A
MCGREGOR         N/A     81  68  65 N12G26      N/A
TEMPLE           N/A     82  68  61 N18G24      N/A
LAKE LIMESTONE   N/A     91  66  43 S3          N/A  HX  94
ATHENS           N/A     82  77  83 E3          N/A  HX  91
$$

SUPPLEMENTAL OBSERVATIONS (NWS NORMAN AREA)

CITY           SKY/WX    TMP DP  RH WIND       PRES   REMARKS
GOODLETT         N/A     85  64  49 E9        29.99R
ODELL            N/A     82  71  67 E6        30.00R
CROWELL          N/A     87  69  53 E9        29.99R HX  91
KNOX CITY        N/A     89  61  39 S12       29.99R
SEYMOUR          N/A     87  65  48 SE10      29.98R
MILLERS CREEK    N/A     86  68  54 S13         N/A
$$

SUPPLEMENTAL OBSERVATIONS (NWS SAN ANGELO AREA)

CITY           SKY/WX    TMP DP  RH WIND       PRES   REMARKS
WEINERT          N/A     87  66  48 S12       30.00R
HASKELL          N/A     85  61  44 S13G18    30.01R
THROCKMORTON     N/A     82  67  60 SE8       30.02R
STAMFORD         N/A     81  68  63 S12       30.02S
CLYDE            N/A     74  68  80 SE8       30.05S
HAMBY            N/A     79  66  65 S8G16       N/A
IVIE RESERVOIR   N/A     73  68  83 SE7         N/A
COLORADO BEND    N/A     79  68  69 NE8G16      N/A
$$

SUPPLEMENTAL OBSERVATIONS (NWS SHREVEPORT AREA)

CITY           SKY/WX    TMP DP  RH WIND       PRES   REMARKS
CLARKSVILLE      N/A     81  75  83 SE3         N/A
TEXARKANA        N/A     79  77  94 CALM        N/A
LINDEN           N/A     79  75  89 CALM        N/A
CADDO LAKE       N/A     79  75  89 CALM        N/A
GILMER           N/A     81  77  89 CALM        N/A
HENDERSON        N/A     82  77  83 CALM        N/A  HX  91
LUFKIN           N/A     86  77  74 MISG        N/A  HX  97
N SABINE NF      N/A     81  77  89 MISG        N/A
S SABINE NF      N/A     82  77  83 CALM        N/A  HX  91
$$

SUPPLEMENTAL OBSERVATIONS ARE A COLLECTION OF AUTOMATED INSTRUMENTS
THAT ARE MAINTAINED BY A VARIETY OF FEDERAL AND STATE AGENCIES.
CERTAIN ELEMENTS...SUCH AS HUMIDITY VALUES AND SUSTAINED WIND
SPEEDS...MAY BE APPROXIMATED.





USA.gov is the U.S. government's official web portal to all federal, state and local government web resources and services.